TUP633 UIUU-UNNT

Flight info

Callsign TUP633
Flight time 2h 30m
Altitude 36000
Route PILUG1A PILUG B155 IKT W241 BD R497 LONKA A822 LAPAK B151 KESED B926 NATIR NATIR1K
Aircraft B752/M-SDE2E3FGHIJ3J4J7RWXY/LB1

Departure

Time 2026-05-06 14:37
Airport Baikal International Airport (UIUU)

Arrival

Time 2026-05-06 17:07
Airport Novosibirsk Tolmachevo Airport (UNNT)
Time Latitude Longitude Altitude Speed Heading
2026-05-06 14:09 51.80624 107.45031 1670 ft 0 kts 85°
2026-05-06 14:28 51.80625 107.45036 1669 ft 1 kts 83°
2026-05-06 14:28 51.80620 107.45072 1669 ft 4 kts 125°
2026-05-06 14:28 51.80584 107.45088 1668 ft 3 kts 184°
2026-05-06 14:28 51.80569 107.45088 1668 ft 1 kts 185°
2026-05-06 14:29 51.80548 107.45081 1668 ft 4 kts 200°
2026-05-06 14:29 51.80528 107.45049 1669 ft 4 kts 249°
2026-05-06 14:29 51.80535 107.44981 1670 ft 9 kts 318°
2026-05-06 14:29 51.80632 107.44938 1671 ft 19 kts 353°
2026-05-06 14:30 51.80777 107.44904 1672 ft 19 kts 351°
2026-05-06 14:30 51.80885 107.44878 1674 ft 5 kts 339°
2026-05-06 14:30 51.80902 107.44810 1675 ft 13 kts 265°
2026-05-06 14:30 51.80887 107.44691 1676 ft 5 kts 258°
2026-05-06 14:31 51.80878 107.44621 1677 ft 10 kts 258°
2026-05-06 14:31 51.80856 107.44444 1678 ft 21 kts 255°
2026-05-06 14:31 51.80843 107.44295 1677 ft 5 kts 292°
2026-05-06 14:31 51.80864 107.44258 1677 ft 4 kts 330°
2026-05-06 14:32 51.80870 107.44255 1678 ft 0 kts 338°
2026-05-06 14:32 51.80927 107.44230 1679 ft 18 kts 348°
2026-05-06 14:32 51.80990 107.44237 1680 ft 7 kts 40°
2026-05-06 14:33 51.81021 107.44366 1682 ft 18 kts 77°
2026-05-06 14:33 51.81057 107.44633 1679 ft 30 kts 78°
2026-05-06 14:33 51.81111 107.45043 1673 ft 44 kts 76°
2026-05-06 14:33 51.81179 107.45567 1664 ft 48 kts 78°
2026-05-06 14:34 51.81231 107.45966 1659 ft 6 kts 77°
2026-05-06 14:34 51.81241 107.46039 1658 ft 6 kts 77°
2026-05-06 14:34 51.81251 107.46119 1657 ft 10 kts 81°
2026-05-06 14:34 51.81264 107.46294 1655 ft 18 kts 94°
2026-05-06 14:35 51.81256 107.46433 1651 ft 4 kts 41°
2026-05-06 14:35 51.81285 107.46392 1652 ft 10 kts 270°
2026-05-06 14:35 51.81278 107.46330 1654 ft 0 kts 258°
2026-05-06 14:36 51.81277 107.46319 1654 ft 5 kts 258°
2026-05-06 14:36 51.81249 107.46102 1658 ft 44 kts 258°
2026-05-06 14:36 51.81138 107.45263 1669 ft 109 kts 259°
2026-05-06 14:36 51.80941 107.43739 1686 ft 169 kts 258°
2026-05-06 14:37 51.80661 107.41665 1933 ft 206 kts 259°
2026-05-06 14:37 51.80350 107.39430 3040 ft 202 kts 258°
2026-05-06 14:37 51.80072 107.37247 3533 ft 208 kts 258°
2026-05-06 14:37 51.79775 107.34885 3701 ft 226 kts 257°
2026-05-06 14:38 51.79433 107.32301 4037 ft 241 kts 257°
2026-05-06 14:38 51.79084 107.29642 4539 ft 249 kts 258°
2026-05-06 14:38 51.78713 107.26822 4908 ft 264 kts 258°
2026-05-06 14:38 51.78650 107.23909 5605 ft 264 kts 281°
2026-05-06 14:39 51.79078 107.21027 6280 ft 266 kts 284°
2026-05-06 14:39 51.79509 107.18190 6997 ft 266 kts 284°
2026-05-06 14:39 51.79965 107.15269 7686 ft 267 kts 284°
2026-05-06 14:39 51.80423 107.12382 8358 ft 269 kts 284°
2026-05-06 14:40 51.80889 107.09473 9027 ft 271 kts 285°
2026-05-06 14:40 51.81358 107.06547 9682 ft 272 kts 285°
2026-05-06 14:40 51.81842 107.03543 10051 ft 283 kts 285°
2026-05-06 14:40 51.82341 107.00440 10017 ft 282 kts 285°
2026-05-06 14:41 51.82822 106.97443 10025 ft 272 kts 285°
2026-05-06 14:41 51.83292 106.94508 10030 ft 269 kts 285°
2026-05-06 14:41 51.83770 106.91529 10171 ft 281 kts 285°
2026-05-06 14:41 51.84257 106.88488 10791 ft 285 kts 285°
2026-05-06 14:42 51.84764 106.85317 10960 ft 305 kts 285°
2026-05-06 14:42 51.85313 106.81873 11216 ft 323 kts 285°
2026-05-06 14:42 51.85875 106.78339 11873 ft 326 kts 285°
2026-05-06 14:42 51.86438 106.74790 12486 ft 331 kts 285°
2026-05-06 14:43 51.87004 106.71209 13113 ft 334 kts 285°
2026-05-06 14:43 51.87584 106.67542 13713 ft 337 kts 285°
2026-05-06 14:43 51.88156 106.63913 14289 ft 340 kts 285°
2026-05-06 14:43 51.88746 106.60169 14823 ft 344 kts 285°
2026-05-06 14:44 51.89336 106.56403 15370 ft 346 kts 285°
2026-05-06 14:44 51.89922 106.52666 15848 ft 350 kts 285°
2026-05-06 14:44 51.90526 106.48795 16361 ft 353 kts 285°
2026-05-06 14:45 51.91724 106.41097 17326 ft 359 kts 285°
2026-05-06 14:45 51.92334 106.37168 17789 ft 361 kts 285°
2026-05-06 14:45 51.92944 106.33221 18245 ft 364 kts 284°
2026-05-06 14:45 51.93564 106.29210 18663 ft 368 kts 284°
2026-05-06 14:46 51.94182 106.25196 19126 ft 370 kts 284°
2026-05-06 14:46 51.94803 106.21151 19538 ft 372 kts 284°
2026-05-06 14:46 51.95411 106.17088 19977 ft 374 kts 281°
2026-05-06 14:46 51.95864 106.12964 20350 ft 378 kts 279°
2026-05-06 14:47 51.96313 106.08768 20739 ft 381 kts 280°
2026-05-06 14:47 51.96773 106.04496 21165 ft 383 kts 280°
2026-05-06 14:47 51.97228 106.00266 21525 ft 386 kts 280°
2026-05-06 14:47 51.97690 105.95969 21941 ft 387 kts 280°
2026-05-06 14:48 51.98148 105.91692 22358 ft 389 kts 280°
2026-05-06 14:48 51.98609 105.87376 22729 ft 391 kts 280°
2026-05-06 14:48 51.99067 105.83074 23151 ft 392 kts 281°
2026-05-06 14:48 51.99531 105.78708 23510 ft 394 kts 281°
2026-05-06 14:49 51.99994 105.74333 23868 ft 396 kts 281°
2026-05-06 14:49 52.00461 105.69901 24207 ft 399 kts 281°
2026-05-06 14:49 52.00925 105.65474 24566 ft 400 kts 281°
2026-05-06 14:49 52.01389 105.61036 24954 ft 401 kts 281°
2026-05-06 14:50 52.01850 105.56604 25282 ft 403 kts 281°
2026-05-06 14:50 52.02236 105.52884 25569 ft 404 kts 281°
2026-05-06 14:50 52.02697 105.48428 25890 ft 405 kts 282°
2026-05-06 14:50 52.03167 105.43941 26213 ft 406 kts 284°
2026-05-06 14:51 52.03936 105.39528 26542 ft 404 kts 293°
2026-05-06 14:51 52.04916 105.35269 26844 ft 406 kts 293°
2026-05-06 14:51 52.05903 105.30937 27191 ft 407 kts 292°
2026-05-06 14:51 52.06889 105.26633 27477 ft 409 kts 292°
2026-05-06 14:52 52.07870 105.22353 27785 ft 410 kts 293°
2026-05-06 14:52 52.08869 105.17999 28098 ft 411 kts 293°
2026-05-06 14:52 52.09867 105.13641 28374 ft 412 kts 293°
2026-05-06 14:52 52.10870 105.09255 28709 ft 413 kts 293°
2026-05-06 14:53 52.11868 105.04882 28965 ft 415 kts 293°
2026-05-06 14:53 52.12865 105.00507 29280 ft 416 kts 294°
2026-05-06 14:53 52.13866 104.96104 29550 ft 417 kts 294°
2026-05-06 14:53 52.14870 104.91681 29887 ft 417 kts 294°
2026-05-06 14:54 52.15869 104.87273 30126 ft 419 kts 294°
2026-05-06 14:54 52.16869 104.82848 30505 ft 418 kts 294°
2026-05-06 14:54 52.17878 104.78376 30721 ft 420 kts 294°
2026-05-06 14:54 52.18874 104.73949 31107 ft 418 kts 294°
2026-05-06 14:55 52.19871 104.69510 31387 ft 418 kts 295°
2026-05-06 14:55 52.20855 104.65118 31747 ft 414 kts 295°
2026-05-06 14:55 52.21839 104.60717 32040 ft 413 kts 295°
2026-05-06 14:55 52.22810 104.56368 32243 ft 414 kts 295°
2026-05-06 14:56 52.23791 104.51966 32549 ft 412 kts 295°
2026-05-06 14:56 52.24770 104.47560 32762 ft 411 kts 295°
2026-05-06 14:56 52.25705 104.43194 33033 ft 412 kts 292°
2026-05-06 14:56 52.26434 104.38670 33225 ft 413 kts 290°
2026-05-06 14:57 52.27140 104.34158 33432 ft 413 kts 290°
2026-05-06 14:57 52.27842 104.29652 33643 ft 412 kts 290°
2026-05-06 14:57 52.28540 104.25140 33803 ft 413 kts 290°
2026-05-06 14:57 52.29243 104.20569 34036 ft 411 kts 290°
2026-05-06 14:58 52.29925 104.16112 34229 ft 410 kts 290°
2026-05-06 14:58 52.30612 104.11608 34423 ft 409 kts 290°
2026-05-06 14:58 52.31299 104.07092 34632 ft 407 kts 290°
2026-05-06 14:58 52.31966 104.02683 34812 ft 406 kts 290°
2026-05-06 14:59 52.32647 103.98183 34933 ft 406 kts 290°
2026-05-06 14:59 52.33318 103.93728 35036 ft 406 kts 290°
2026-05-06 14:59 52.33995 103.89225 35122 ft 406 kts 290°
2026-05-06 15:00 52.35333 103.80277 35316 ft 406 kts 290°
2026-05-06 15:00 52.36663 103.71336 35438 ft 408 kts 290°
2026-05-06 15:00 52.37322 103.66883 35578 ft 405 kts 290°
2026-05-06 15:01 52.37984 103.62395 35621 ft 407 kts 290°
2026-05-06 15:01 52.39300 103.53451 35770 ft 407 kts 289°
2026-05-06 15:02 52.40615 103.44449 35901 ft 407 kts 289°
2026-05-06 15:02 52.41913 103.35513 36031 ft 406 kts 290°
2026-05-06 15:03 52.43209 103.26543 36118 ft 405 kts 289°
2026-05-06 15:03 52.44994 103.17946 36151 ft 394 kts 304°
2026-05-06 15:04 52.47897 103.10446 36143 ft 391 kts 307°
2026-05-06 15:04 52.50849 103.02975 36139 ft 389 kts 307°
2026-05-06 15:05 52.53784 102.95573 36129 ft 390 kts 307°
2026-05-06 15:05 52.56723 102.88155 36134 ft 390 kts 307°
2026-05-06 15:06 52.59679 102.80682 36141 ft 389 kts 307°
2026-05-06 15:06 52.62608 102.73257 36137 ft 388 kts 307°
2026-05-06 15:07 52.65535 102.65819 36136 ft 389 kts 307°
2026-05-06 15:07 52.68451 102.58384 36125 ft 388 kts 307°
2026-05-06 15:08 52.71371 102.50919 36123 ft 388 kts 307°
2026-05-06 15:08 52.74266 102.43495 36108 ft 388 kts 308°
2026-05-06 15:09 52.77181 102.36001 36111 ft 387 kts 307°
2026-05-06 15:09 52.80076 102.28533 36112 ft 387 kts 307°
2026-05-06 15:10 52.82959 102.21076 36106 ft 387 kts 306°
2026-05-06 15:10 52.85838 102.13607 36104 ft 385 kts 307°
2026-05-06 15:11 52.88700 102.06160 36103 ft 384 kts 307°
2026-05-06 15:11 52.91550 101.98721 36090 ft 383 kts 307°
2026-05-06 15:12 52.94380 101.91315 36103 ft 384 kts 307°
2026-05-06 15:12 52.97223 101.83850 36093 ft 384 kts 307°
2026-05-06 15:13 53.00079 101.76335 36102 ft 392 kts 307°
2026-05-06 15:13 53.03001 101.68623 36108 ft 401 kts 306°
2026-05-06 15:14 53.05951 101.60801 36098 ft 398 kts 306°
2026-05-06 15:14 53.08855 101.53082 36100 ft 392 kts 306°
2026-05-06 15:15 53.11755 101.45354 36119 ft 393 kts 306°
2026-05-06 15:15 53.13177 101.41547 36116 ft 380 kts 306°
2026-05-06 15:15 53.14529 101.37925 36105 ft 367 kts 306°
2026-05-06 15:16 53.17219 101.30718 36117 ft 368 kts 306°
2026-05-06 15:16 53.19925 101.23446 36121 ft 370 kts 305°
2026-05-06 15:17 53.22631 101.16148 36135 ft 373 kts 305°
2026-05-06 15:17 53.25345 101.08809 36129 ft 375 kts 305°
2026-05-06 15:18 53.28076 101.01400 36133 ft 378 kts 306°
2026-05-06 15:18 53.30824 100.93923 36125 ft 380 kts 306°
2026-05-06 15:19 53.33580 100.86404 36118 ft 381 kts 305°
2026-05-06 15:19 53.36351 100.78819 36120 ft 383 kts 305°
2026-05-06 15:20 53.39104 100.71259 36124 ft 384 kts 305°
2026-05-06 15:20 53.41878 100.63623 36121 ft 385 kts 305°
2026-05-06 15:21 53.44640 100.55992 36119 ft 385 kts 305°
2026-05-06 15:21 53.47409 100.48319 36119 ft 385 kts 305°
2026-05-06 15:22 53.50162 100.40668 36114 ft 385 kts 305°
2026-05-06 15:22 53.52919 100.32981 36118 ft 385 kts 304°
2026-05-06 15:23 53.55686 100.25245 36119 ft 387 kts 304°
2026-05-06 15:23 53.58432 100.17542 36116 ft 387 kts 304°
2026-05-06 15:24 53.61192 100.09774 36109 ft 386 kts 304°
2026-05-06 15:24 53.63939 100.02021 36115 ft 387 kts 304°
2026-05-06 15:25 53.66677 99.94268 36111 ft 387 kts 304°
2026-05-06 15:25 53.69414 99.86494 36114 ft 387 kts 304°
2026-05-06 15:26 53.72144 99.78715 36112 ft 387 kts 304°
2026-05-06 15:26 53.74883 99.70883 36107 ft 386 kts 304°
2026-05-06 15:27 53.77592 99.63116 36108 ft 387 kts 303°
2026-05-06 15:27 53.80310 99.55300 36097 ft 388 kts 304°
2026-05-06 15:28 53.83019 99.47481 36104 ft 386 kts 303°
2026-05-06 15:28 53.85730 99.39631 36099 ft 386 kts 304°
2026-05-06 15:29 53.88435 99.31776 36101 ft 387 kts 303°
2026-05-06 15:29 53.91134 99.23913 36096 ft 387 kts 303°
2026-05-06 15:30 53.93827 99.16045 36093 ft 387 kts 303°
2026-05-06 15:30 53.96510 99.08180 36083 ft 388 kts 302°
2026-05-06 15:31 53.99198 99.00272 36075 ft 387 kts 302°
2026-05-06 15:31 54.01879 98.92358 36075 ft 387 kts 302°
2026-05-06 15:32 54.05886 98.80487 36084 ft 388 kts 303°
2026-05-06 15:32 54.08553 98.72555 36085 ft 388 kts 302°
2026-05-06 15:33 54.11215 98.64609 36115 ft 387 kts 302°
2026-05-06 15:33 54.13875 98.56645 36109 ft 387 kts 302°
2026-05-06 15:34 54.16519 98.48706 36106 ft 386 kts 302°
2026-05-06 15:34 54.19153 98.40770 36105 ft 387 kts 302°
2026-05-06 15:35 54.21791 98.32790 36121 ft 385 kts 302°
2026-05-06 15:35 54.24413 98.24838 36114 ft 386 kts 302°
2026-05-06 15:36 54.27039 98.16850 36114 ft 386 kts 301°
2026-05-06 15:36 54.29662 98.08842 36109 ft 386 kts 302°
2026-05-06 15:37 54.32268 98.00857 36105 ft 386 kts 301°
2026-05-06 15:37 54.34870 97.92871 36108 ft 385 kts 301°
2026-05-06 15:38 54.37470 97.84904 36118 ft 385 kts 301°
2026-05-06 15:38 54.40073 97.76901 36112 ft 386 kts 301°
2026-05-06 15:39 54.42666 97.68899 36109 ft 386 kts 301°
2026-05-06 15:39 54.45275 97.60821 36107 ft 385 kts 301°
2026-05-06 15:40 54.47855 97.52807 36106 ft 386 kts 301°
2026-05-06 15:40 54.50426 97.44796 36103 ft 385 kts 301°
2026-05-06 15:41 54.53010 97.36716 36104 ft 385 kts 301°
2026-05-06 15:41 54.55581 97.28653 36099 ft 386 kts 300°
2026-05-06 15:42 54.58159 97.20536 36082 ft 386 kts 300°
2026-05-06 15:42 54.60708 97.12485 36102 ft 385 kts 300°
2026-05-06 15:43 54.63260 97.04400 36094 ft 386 kts 300°
2026-05-06 15:43 54.65817 96.96268 36083 ft 386 kts 300°
2026-05-06 15:44 54.68358 96.88161 36092 ft 385 kts 300°
2026-05-06 15:44 54.70887 96.80067 36080 ft 385 kts 300°
2026-05-06 15:45 54.73416 96.71941 36082 ft 384 kts 300°
2026-05-06 15:45 54.75358 96.63340 36083 ft 388 kts 285°
2026-05-06 15:46 54.76514 96.54218 36058 ft 389 kts 285°
2026-05-06 15:46 54.77633 96.45104 36060 ft 387 kts 285°
2026-05-06 15:47 54.78724 96.36026 36053 ft 388 kts 285°
2026-05-06 15:47 54.79805 96.26919 36058 ft 388 kts 284°
2026-05-06 15:48 54.80877 96.17788 36054 ft 387 kts 284°
2026-05-06 15:48 54.81946 96.08629 36068 ft 388 kts 284°
2026-05-06 15:49 54.83001 95.99521 36051 ft 388 kts 284°
2026-05-06 15:49 54.84048 95.90409 36050 ft 387 kts 284°
2026-05-06 15:50 54.85087 95.81303 36054 ft 387 kts 284°
2026-05-06 15:50 54.86122 95.72171 36050 ft 386 kts 284°
2026-05-06 15:51 54.87147 95.63058 36045 ft 387 kts 284°
2026-05-06 15:51 54.88173 95.53871 36037 ft 386 kts 284°
2026-05-06 15:52 54.89184 95.44765 36038 ft 386 kts 284°
2026-05-06 15:52 54.90196 95.35574 36042 ft 387 kts 284°
2026-05-06 15:53 54.91196 95.26415 36042 ft 386 kts 283°
2026-05-06 15:53 54.92187 95.17291 36035 ft 386 kts 283°
2026-05-06 15:54 54.93168 95.08179 36026 ft 386 kts 283°
2026-05-06 15:54 54.94145 94.99032 36031 ft 384 kts 283°
2026-05-06 15:55 54.95115 94.89893 36029 ft 385 kts 282°
2026-05-06 15:55 54.96079 94.80739 36034 ft 386 kts 282°
2026-05-06 15:56 54.97031 94.71628 36036 ft 387 kts 282°
2026-05-06 15:56 54.97981 94.62456 36027 ft 386 kts 282°
2026-05-06 15:57 54.98929 94.53243 36021 ft 387 kts 282°
2026-05-06 15:57 54.99869 94.44032 36026 ft 388 kts 282°
2026-05-06 15:58 55.00803 94.34811 36020 ft 388 kts 281°
2026-05-06 15:58 55.01730 94.25584 36016 ft 387 kts 281°
2026-05-06 15:59 55.02647 94.16377 36031 ft 388 kts 281°
2026-05-06 15:59 55.03562 94.07128 36026 ft 389 kts 281°
2026-05-06 16:00 55.04464 93.97933 36025 ft 388 kts 281°
2026-05-06 16:00 55.05365 93.88670 36012 ft 389 kts 281°
2026-05-06 16:01 55.06257 93.79415 36013 ft 388 kts 281°
2026-05-06 16:01 55.07146 93.70124 36009 ft 389 kts 280°
2026-05-06 16:02 55.08027 93.60837 35997 ft 389 kts 280°
2026-05-06 16:02 55.08897 93.51582 35987 ft 389 kts 280°
2026-05-06 16:03 55.09763 93.42307 35998 ft 389 kts 280°
2026-05-06 16:03 55.10619 93.33039 35989 ft 389 kts 280°
2026-05-06 16:04 55.11462 93.23852 35991 ft 390 kts 279°
2026-05-06 16:04 55.12313 93.14494 35995 ft 391 kts 280°
2026-05-06 16:05 55.13157 93.05135 35991 ft 390 kts 279°
2026-05-06 16:05 55.13988 92.95820 35983 ft 390 kts 279°
2026-05-06 16:06 55.14818 92.86449 35984 ft 391 kts 279°
2026-05-06 16:06 55.15634 92.77134 35984 ft 390 kts 279°
2026-05-06 16:07 55.16449 92.67753 35971 ft 391 kts 279°
2026-05-06 16:07 55.17255 92.58402 35970 ft 392 kts 279°
2026-05-06 16:08 55.18057 92.49002 35968 ft 391 kts 279°
2026-05-06 16:08 55.18854 92.39614 35947 ft 391 kts 279°
2026-05-06 16:09 55.19650 92.30146 35978 ft 392 kts 278°
2026-05-06 16:09 55.20435 92.20728 35975 ft 392 kts 278°
2026-05-06 16:10 55.21210 92.11340 35971 ft 392 kts 278°
2026-05-06 16:10 55.21978 92.01945 35967 ft 392 kts 278°
2026-05-06 16:11 55.22741 91.92516 35953 ft 392 kts 277°
2026-05-06 16:11 55.23497 91.83071 35951 ft 392 kts 278°
2026-05-06 16:12 55.24247 91.73617 35948 ft 392 kts 277°
2026-05-06 16:12 55.24987 91.64192 35941 ft 392 kts 277°
2026-05-06 16:13 55.25718 91.54778 35941 ft 393 kts 277°
2026-05-06 16:13 55.26451 91.45248 35930 ft 394 kts 277°
2026-05-06 16:14 55.27171 91.35794 35921 ft 395 kts 277°
2026-05-06 16:14 55.27891 91.26217 35922 ft 396 kts 277°
2026-05-06 16:15 55.28599 91.16729 35919 ft 394 kts 276°
2026-05-06 16:16 55.30030 90.97191 35912 ft 395 kts 276°
2026-05-06 16:16 55.30718 90.87640 35917 ft 395 kts 276°
2026-05-06 16:17 55.31398 90.78101 35895 ft 395 kts 276°
2026-05-06 16:17 55.32071 90.68534 35896 ft 397 kts 276°
2026-05-06 16:18 55.32735 90.59000 35904 ft 397 kts 276°
2026-05-06 16:18 55.33395 90.49406 35896 ft 397 kts 276°
2026-05-06 16:19 55.34049 90.39798 35896 ft 397 kts 276°
2026-05-06 16:19 55.34679 90.30418 35898 ft 398 kts 275°
2026-05-06 16:20 55.35315 90.20847 35891 ft 397 kts 275°
2026-05-06 16:20 55.35949 90.11195 35887 ft 399 kts 275°
2026-05-06 16:21 55.36575 90.01536 35887 ft 397 kts 275°
2026-05-06 16:21 55.37188 89.91944 35858 ft 395 kts 275°
2026-05-06 16:22 55.37794 89.82359 35851 ft 396 kts 275°
2026-05-06 16:22 55.38390 89.72820 35878 ft 396 kts 275°
2026-05-06 16:23 55.38985 89.63153 35862 ft 397 kts 275°
2026-05-06 16:23 55.39569 89.53543 35855 ft 397 kts 275°
2026-05-06 16:24 55.40147 89.43914 35853 ft 398 kts 275°
2026-05-06 16:24 55.40720 89.34237 35865 ft 398 kts 274°
2026-05-06 16:25 55.41283 89.24593 35863 ft 397 kts 275°
2026-05-06 16:25 55.41835 89.14992 35865 ft 398 kts 274°
2026-05-06 16:26 55.42383 89.05349 35898 ft 399 kts 274°
2026-05-06 16:26 55.42926 88.95669 35867 ft 398 kts 274°
2026-05-06 16:27 55.42931 88.86005 35888 ft 397 kts 265°
2026-05-06 16:27 55.42525 88.76264 35887 ft 398 kts 265°
2026-05-06 16:28 55.42080 88.66522 35874 ft 398 kts 265°
2026-05-06 16:28 55.41616 88.56842 35880 ft 398 kts 265°
2026-05-06 16:29 55.41140 88.47189 35877 ft 398 kts 265°
2026-05-06 16:29 55.40651 88.37467 35870 ft 399 kts 265°
2026-05-06 16:30 55.40238 88.29377 35882 ft 399 kts 264°
2026-05-06 16:30 55.39650 88.18052 35886 ft 400 kts 264°
2026-05-06 16:31 55.39137 88.08347 35888 ft 401 kts 264°
2026-05-06 16:31 55.38615 87.98619 35869 ft 400 kts 264°
2026-05-06 16:32 55.38090 87.88978 35879 ft 401 kts 264°
2026-05-06 16:32 55.37549 87.79190 35868 ft 402 kts 264°
2026-05-06 16:33 55.37007 87.69508 35875 ft 402 kts 264°
2026-05-06 16:34 55.36172 87.54884 35872 ft 402 kts 264°
2026-05-06 16:34 55.35608 87.45098 35865 ft 403 kts 265°
2026-05-06 16:35 55.35036 87.35303 35603 ft 409 kts 264°
2026-05-06 16:35 55.34745 87.30372 35413 ft 407 kts 263°
2026-05-06 16:35 55.34456 87.25509 35201 ft 402 kts 263°
2026-05-06 16:35 55.34163 87.20619 35008 ft 401 kts 263°
2026-05-06 16:36 55.33872 87.15801 34814 ft 401 kts 263°
2026-05-06 16:36 55.33578 87.10948 34631 ft 401 kts 263°
2026-05-06 16:36 55.33279 87.06055 34420 ft 401 kts 263°
2026-05-06 16:36 55.32982 87.01235 34192 ft 401 kts 263°
2026-05-06 16:37 55.32681 86.96379 33963 ft 402 kts 263°
2026-05-06 16:37 55.32378 86.91509 33713 ft 403 kts 263°
2026-05-06 16:37 55.32067 86.86569 33119 ft 413 kts 263°
2026-05-06 16:37 55.31753 86.81589 32880 ft 403 kts 263°
2026-05-06 16:38 55.31447 86.76775 32823 ft 396 kts 262°
2026-05-06 16:38 55.31138 86.71962 32678 ft 402 kts 263°
2026-05-06 16:38 55.30820 86.67037 32382 ft 412 kts 263°
2026-05-06 16:38 55.30500 86.62090 32047 ft 414 kts 263°
2026-05-06 16:39 55.30175 86.57113 31685 ft 410 kts 262°
2026-05-06 16:39 55.29850 86.52140 31326 ft 407 kts 262°
2026-05-06 16:39 55.29530 86.47301 30975 ft 406 kts 262°
2026-05-06 16:39 55.29201 86.42351 30612 ft 408 kts 262°
2026-05-06 16:40 55.28870 86.37414 30227 ft 409 kts 262°
2026-05-06 16:40 55.28538 86.32488 29834 ft 412 kts 261°
2026-05-06 16:40 55.28199 86.27488 29441 ft 413 kts 262°
2026-05-06 16:40 55.27863 86.22547 29055 ft 414 kts 262°
2026-05-06 16:41 55.27519 86.17532 28661 ft 414 kts 262°
2026-05-06 16:41 55.27172 86.12505 28272 ft 415 kts 262°
2026-05-06 16:41 55.26890 86.07549 27882 ft 413 kts 264°
2026-05-06 16:41 55.26662 86.02544 27486 ft 410 kts 264°
2026-05-06 16:42 55.26431 85.97652 27101 ft 406 kts 264°
2026-05-06 16:42 55.26195 85.92720 26711 ft 404 kts 264°
2026-05-06 16:42 55.25962 85.87888 26322 ft 402 kts 264°
2026-05-06 16:42 55.25726 85.83038 25937 ft 400 kts 264°
2026-05-06 16:43 55.25489 85.78220 25549 ft 398 kts 264°
2026-05-06 16:43 55.25248 85.73357 25153 ft 397 kts 264°
2026-05-06 16:43 55.25009 85.68594 24771 ft 396 kts 264°
2026-05-06 16:43 55.24770 85.63839 24384 ft 394 kts 264°
2026-05-06 16:44 55.24527 85.59061 23987 ft 391 kts 264°
2026-05-06 16:44 55.24288 85.54397 23602 ft 388 kts 265°
2026-05-06 16:44 55.24045 85.49678 23199 ft 385 kts 265°
2026-05-06 16:44 55.23803 85.45039 22751 ft 385 kts 265°
2026-05-06 16:45 55.23562 85.40417 22305 ft 383 kts 265°
2026-05-06 16:45 55.23319 85.35821 21859 ft 381 kts 265°
2026-05-06 16:45 55.23074 85.31204 21414 ft 378 kts 264°
2026-05-06 16:45 55.22837 85.26765 20988 ft 375 kts 264°
2026-05-06 16:46 55.22587 85.22131 20542 ft 374 kts 264°
2026-05-06 16:46 55.22343 85.17635 20103 ft 372 kts 264°
2026-05-06 16:46 55.22101 85.13193 19673 ft 366 kts 264°
2026-05-06 16:46 55.21859 85.08816 19251 ft 361 kts 265°
2026-05-06 16:47 55.21617 85.04452 18814 ft 356 kts 265°
2026-05-06 16:47 55.21378 85.00149 18383 ft 351 kts 265°
2026-05-06 16:47 55.21144 84.95969 17958 ft 347 kts 265°
2026-05-06 16:47 55.20909 84.91805 17536 ft 343 kts 265°
2026-05-06 16:48 55.20676 84.87709 17111 ft 339 kts 265°
2026-05-06 16:48 55.20445 84.83653 16681 ft 335 kts 265°
2026-05-06 16:48 55.20211 84.79588 16253 ft 332 kts 265°
2026-05-06 16:48 55.19982 84.75610 15823 ft 329 kts 265°
2026-05-06 16:49 55.19751 84.71657 15394 ft 326 kts 264°
2026-05-06 16:49 55.19280 84.67814 14980 ft 324 kts 255°
2026-05-06 16:49 55.18641 84.64053 14550 ft 323 kts 255°
2026-05-06 16:49 55.18011 84.60306 14127 ft 324 kts 255°
2026-05-06 16:50 55.17373 84.56562 13699 ft 324 kts 255°
2026-05-06 16:50 55.16727 84.52799 13274 ft 322 kts 255°
2026-05-06 16:50 55.16082 84.49058 12850 ft 320 kts 255°
2026-05-06 16:50 55.15665 84.46640 12573 ft 318 kts 255°
2026-05-06 16:51 55.14816 84.41746 12009 ft 316 kts 255°
2026-05-06 16:51 55.14182 84.38097 11581 ft 314 kts 255°
2026-05-06 16:51 55.13541 84.34420 11152 ft 313 kts 254°
2026-05-06 16:51 55.12916 84.30839 10820 ft 308 kts 254°
2026-05-06 16:52 55.12315 84.27403 10618 ft 304 kts 254°
2026-05-06 16:52 55.11694 84.23859 10473 ft 306 kts 254°
2026-05-06 16:52 55.11062 84.20255 10329 ft 310 kts 254°
2026-05-06 16:52 55.10428 84.16657 10179 ft 310 kts 254°
2026-05-06 16:53 55.09806 84.13134 10019 ft 300 kts 253°
2026-05-06 16:53 55.09199 84.09698 9856 ft 290 kts 253°
2026-05-06 16:53 55.08620 84.06427 9695 ft 281 kts 253°
2026-05-06 16:53 55.08076 84.03172 9530 ft 273 kts 260°
2026-05-06 16:54 55.07837 83.99912 9391 ft 273 kts 265°
2026-05-06 16:54 55.07633 83.96604 9244 ft 278 kts 264°
2026-05-06 16:54 55.07423 83.93272 9099 ft 279 kts 265°
2026-05-06 16:54 55.07213 83.89909 8950 ft 277 kts 265°
2026-05-06 16:55 55.07004 83.86549 8716 ft 277 kts 265°
2026-05-06 16:55 55.06799 83.83262 8465 ft 275 kts 265°
2026-05-06 16:55 55.06592 83.79946 8208 ft 272 kts 265°
2026-05-06 16:55 55.06388 83.76696 7959 ft 270 kts 265°
2026-05-06 16:56 55.06187 83.73505 7896 ft 263 kts 265°
2026-05-06 16:56 55.05986 83.70317 7905 ft 266 kts 265°
2026-05-06 16:56 55.05780 83.67068 7914 ft 271 kts 265°
2026-05-06 16:56 55.05572 83.63802 7902 ft 271 kts 265°
2026-05-06 16:57 55.05363 83.60545 7902 ft 270 kts 265°
2026-05-06 16:57 55.05157 83.57328 7906 ft 270 kts 265°
2026-05-06 16:57 55.04947 83.54079 7903 ft 271 kts 265°
2026-05-06 16:57 55.04734 83.50790 7902 ft 271 kts 265°
2026-05-06 16:58 55.04523 83.47543 7905 ft 271 kts 265°
2026-05-06 16:58 55.04309 83.44263 7905 ft 272 kts 265°
2026-05-06 16:58 55.04094 83.40982 7743 ft 276 kts 265°
2026-05-06 16:58 55.03876 83.37670 7569 ft 273 kts 265°
2026-05-06 16:59 55.03659 83.34402 7359 ft 271 kts 264°
2026-05-06 16:59 55.03321 83.31271 7049 ft 272 kts 258°
2026-05-06 16:59 55.02903 83.28082 6691 ft 269 kts 258°
2026-05-06 16:59 55.02498 83.24955 6292 ft 262 kts 258°
2026-05-06 17:00 55.02095 83.21870 5904 ft 257 kts 258°
2026-05-06 17:00 55.01701 83.18872 5522 ft 252 kts 259°
2026-05-06 17:00 55.01318 83.15963 5148 ft 248 kts 259°
2026-05-06 17:00 55.00932 83.13045 4765 ft 245 kts 259°
2026-05-06 17:01 55.00553 83.10176 4360 ft 240 kts 259°
2026-05-06 17:01 55.00188 83.07429 3981 ft 233 kts 259°
2026-05-06 17:01 54.99827 83.04717 3596 ft 227 kts 259°
2026-05-06 17:01 54.99475 83.02076 3224 ft 221 kts 259°
2026-05-06 17:02 54.99133 82.99506 2844 ft 216 kts 261°
2026-05-06 17:02 54.99147 82.96993 2496 ft 204 kts 294°
2026-05-06 17:02 54.99882 82.94988 2178 ft 197 kts 309°
2026-05-06 17:02 55.00731 82.93161 1978 ft 189 kts 309°
2026-05-06 17:03 55.01551 82.91419 1987 ft 183 kts 310°
2026-05-06 17:03 55.02368 82.89731 2021 ft 180 kts 310°
2026-05-06 17:03 55.03034 82.87929 1996 ft 176 kts 282°
2026-05-06 17:03 55.03018 82.85944 2021 ft 158 kts 266°
2026-05-06 17:04 55.02890 82.84077 2038 ft 153 kts 267°
2026-05-06 17:04 55.02762 82.82308 2002 ft 142 kts 267°
2026-05-06 17:04 55.02629 82.80644 1974 ft 134 kts 266°
2026-05-06 17:04 55.02496 82.79026 2006 ft 138 kts 266°
2026-05-06 17:05 55.02360 82.77310 1792 ft 145 kts 266°
2026-05-06 17:05 55.02193 82.75617 1484 ft 141 kts 262°
2026-05-06 17:05 55.02003 82.73929 1201 ft 145 kts 264°
2026-05-06 17:05 55.01856 82.72170 956 ft 148 kts 264°
2026-05-06 17:06 55.01713 82.70451 705 ft 144 kts 264°
2026-05-06 17:06 55.01564 82.68683 515 ft 143 kts 263°
2026-05-06 17:06 55.01423 82.67001 379 ft 134 kts 263°
2026-05-06 17:06 55.01281 82.65465 378 ft 113 kts 259°
2026-05-06 17:07 55.01194 82.64497 377 ft 55 kts 262°
2026-05-06 17:07 55.01162 82.64138 377 ft 23 kts 261°
2026-05-06 17:07 55.01134 82.64000 377 ft 6 kts 212°
2026-05-06 17:07 55.01074 82.63992 377 ft 15 kts 170°
2026-05-06 17:08 55.01022 82.64006 377 ft 0 kts 171°
2026-05-06 17:09 55.01017 82.64009 377 ft 1 kts 156°
2026-05-06 17:09 55.01002 82.64033 377 ft 0 kts 127°
2026-05-06 17:10 55.01001 82.64034 377 ft 1 kts 130°
2026-05-06 17:10 55.00974 82.64042 377 ft 5 kts 193°
2026-05-06 17:11 55.00934 82.64033 377 ft 5 kts 177°
2026-05-06 17:11 55.00882 82.64044 377 ft 8 kts 172°
2026-05-06 17:11 55.00835 82.64072 377 ft 6 kts 139°
2026-05-06 17:11 55.00824 82.64136 377 ft 7 kts 81°
2026-05-06 17:12 55.00838 82.64288 377 ft 15 kts 81°
2026-05-06 17:12 55.00822 82.64436 377 ft 11 kts 145°
2026-05-06 17:12 55.00761 82.64464 377 ft 3 kts 171°
2026-05-06 17:12 55.00759 82.64465 377 ft 0 kts 171°